Weather History for Hastings, NE

Change the Weather History Date:

Wednesday, November 16, 2011

  Actual Average Record
Temperature  
Mean Temperature 32 °F 38 °F  
Max Temperature 42 °F 49 °F 74 °F (1941)
Min Temperature 21 °F 28 °F 0 °F (1955)
Degree Days  
Heating Degree Days 33 27  
Month to date heating degree days 370 368  
Since 1 July heating degree days 857 861  
Cooling Degree Days 0 0  
Month to date cooling degree days 0 0  
Year to date cooling degree days 1119 1077  
Moisture  
Dew Point 19 °F    
Average Humidity 57    
Maximum Humidity 88    
Minimum Humidity 25    
Precipitation  
Precipitation T in 0.04 in 3.21 in (1996)
Month to date precipitation 0.38 0.82  
Year to date precipitation 26.11 26.03  
Snow  
Snow T in 0.10 in 5.00 in (1909)
Month to date snowfall T 1.0  
Since 1 July snowfall T 2.2  
Since 1 September snowfall T 2.2  
Snow Depth -    
Sea Level Pressure  
Sea Level Pressure 30.28 in    
Wind  
Wind Speed 8 mph (WNW)    
Max Wind Speed 24 mph    
Max Gust Speed 30 mph    
Visibility 8 miles    
Events Snow    
T = Trace of Precipitation, MM = Missing Value Source: NWS Daily Summary

Daily Weather History Graph

Daily Weather History Graph

Search for Another Location

Airport:

Trip Planner

Search our weather history database for the weather conditions in past years. The results will help you decide how hot, cold, wet, or windy it might be!

Date:

Astronomy

Nov. 16, 2011 Rise Set
Actual Time 7:21 AM CST 5:15 PM CST
Civil Twilight 6:51 AM CST 5:44 PM CST
Nautical Twilight 6:18 AM CST 6:17 PM CST
Astronomical Twilight 5:46 AM CST 6:50 PM CST
Moon 10:31 PM CST (11/16) 11:57 AM CST (11/16)
Length of Visible Light 10h 52m
Length of Day
9h 54m
Waning Gibbous, 70% of the Moon is Illuminated
Nov 16
Waning Gibbous
Nov 18
Last Quarter
Nov 25
New
Dec 2
First Quarter
Dec 10
Full

Hourly Weather History & Observations

Time (CST) Temp. Windchill Dew Point Humidity Pressure Visibility Wind Dir Wind Speed Gust Speed Precip Events Conditions
12:53 AM 27.0 °F 18.7 °F 12.0 °F 53% 30.12 in 10.0 mi North 8.1 mph - N/A   Clear
1:53 AM 26.1 °F 21.9 °F 10.9 °F 53% 30.13 in 10.0 mi WNW 3.5 mph - N/A   Partly Cloudy
2:53 AM 26.1 °F 19.4 °F 12.9 °F 58% 30.14 in 10.0 mi WNW 5.8 mph - N/A   Mostly Cloudy
3:53 AM 27.0 °F 23.0 °F 14.0 °F 58% 30.14 in 10.0 mi North 3.5 mph - N/A   Scattered Clouds
4:53 AM 28.0 °F 22.8 °F 15.1 °F 58% 30.17 in 10.0 mi WNW 4.6 mph - N/A   Overcast
5:53 AM 28.9 °F 23.9 °F 16.0 °F 58% 30.21 in 10.0 mi West 4.6 mph - N/A   Overcast
6:53 AM 30.0 °F 24.1 °F 17.1 °F 59% 30.24 in 10.0 mi West 5.8 mph - N/A   Overcast
7:53 AM 30.9 °F 25.2 °F 15.1 °F 52% 30.28 in 10.0 mi WNW 5.8 mph - N/A   Overcast
8:53 AM 33.1 °F 26.9 °F 14.0 °F 46% 30.31 in 10.0 mi WNW 6.9 mph - N/A   Overcast
9:53 AM 35.6 °F 30.7 °F 10.4 °F 35% 30.25 in 10.0 mi North 5.8 mph - N/A   Overcast
10:53 AM 37.9 °F 32.1 °F 7.0 °F 28% 30.34 in 10.0 mi NNW 8.1 mph - N/A   Overcast
11:53 AM 39.9 °F 32.9 °F 7.0 °F 26% 30.34 in 10.0 mi NW 11.5 mph - N/A   Overcast
12:53 PM 39.9 °F 32.9 °F 17.1 °F 40% 30.31 in 10.0 mi WNW 11.5 mph 18.4 mph N/A   Overcast
1:53 PM 41.0 °F 33.5 °F 19.0 °F 41% 30.30 in 10.0 mi WNW 13.8 mph 23.0 mph N/A   Overcast
2:53 PM 39.9 °F 31.8 °F 19.0 °F 43% 30.31 in 10.0 mi WNW 15.0 mph 20.7 mph N/A   Overcast
3:53 PM 39.0 °F 29.9 °F 23.0 °F 53% 30.32 in 10.0 mi West 17.3 mph - N/A   Scattered Clouds
4:21 PM 33.8 °F 22.8 °F 28.4 °F 81% 30.28 in 1.5 mi WNW 18.4 mph 29.9 mph 0.00 in Snow Light Snow
4:24 PM 33.8 °F 23.5 °F 26.6 °F 75% 30.27 in 0.8 mi WNW 16.1 mph 29.9 mph 0.00 in Snow Light Snow
4:32 PM 33.8 °F 25.3 °F 26.6 °F 75% 30.27 in 1.0 mi West 11.5 mph 24.2 mph 0.00 in Snow Light Snow
4:41 PM 33.8 °F 24.3 °F 26.6 °F 75% 30.28 in 9.0 mi West 13.8 mph - 0.00 in   Overcast
4:53 PM 34.0 °F 22.1 °F 27.0 °F 75% 30.35 in 5.0 mi West 21.9 mph 25.3 mph 0.00 in Snow Light Snow
4:58 PM 33.8 °F 22.8 °F 28.4 °F 81% 30.29 in 1.8 mi West 18.4 mph - 0.00 in Snow Light Snow
5:16 PM 32.0 °F 24.2 °F 28.4 °F 87% 30.28 in 2.0 mi West 9.2 mph - 0.00 in Snow Light Snow
5:23 PM 30.2 °F 22.6 °F 28.4 °F 93% 30.28 in 9.0 mi West 8.1 mph - 0.00 in Snow Light Snow
5:53 PM 28.9 °F 21.9 °F 26.1 °F 89% 30.35 in 10.0 mi West 6.9 mph - 0.00 in   Clear
6:53 PM 28.9 °F 20.4 °F 25.0 °F 85% 30.37 in 10.0 mi West 9.2 mph - N/A   Scattered Clouds
7:53 PM 28.0 °F 19.3 °F 23.0 °F 81% 30.38 in 10.0 mi West 9.2 mph - N/A   Clear
8:53 PM 24.1 °F 17.0 °F 21.0 °F 88% 30.39 in 10.0 mi West 5.8 mph - N/A   Clear
9:53 PM 24.1 °F 17.0 °F 21.0 °F 88% 30.39 in 10.0 mi West 5.8 mph - N/A   Clear
10:53 PM 21.0 °F 13.4 °F 18.0 °F 88% 30.37 in 10.0 mi West 5.8 mph - N/A   Clear
11:53 PM 23.0 °F 14.7 °F 19.0 °F 85% 30.37 in 10.0 mi West 6.9 mph - N/A   Clear